Theta_e
311 311 311 311 311 311 311 313 314 313 313 313 314 314 314 314 317 317 317 322 324 317 317 317 319 322 322 322 324 324 321 323 321 323 324 334 335 337 337 338 336 343 345 345 343
311 311 312 312 311 311 311 313 314 313 313 314 314 314 314 315 318 318 326 325 323 320 316 319 321 321 321 323 324 323 323 324 325 325 325 338 339 340 341 339 336 344 344 341 340
311 311 312 312 312 311 311 314 314 313 314 314 314 314 314 316 319 327 329 327 316 316 318 320 321 322 322 324 326 327 324 324 329 330 333 342 343 345 345 344 343 344 338 342 339
311 312 312 312 312 312 311 314 313 313 315 315 315 315 315 316 328 324 326 320 316 318 320 321 322 322 323 322 327 326 326 327 330 336 344 344 346 345 346 345 341 338 337 335 335
311 312 312 312 312 312 312 314 313 314 315 316 314 314 316 319 321 326 316 316 319 320 321 321 322 325 322 324 325 325 325 327 330 339 346 346 342 346 344 342 340 337 337 336 335
312 312 312 312 312 312 312 314 314 316 316 316 314 314 316 323 324 320 316 317 320 320 322 322 323 325 325 324 322 326 326 327 331 338 342 338 337 336 340 341 336 335 335 335 335
312 312 312 312 312 312 313 314 317 316 317 315 314 314 316 323 323 318 318 320 321 322 322 322 324 325 324 321 326 326 325 323 326 339 332 331 333 332 334 340 336 335 334 334 334
312 312 313 312 312 312 314 314 317 316 319 317 314 314 318 326 325 318 320 320 321 321 322 323 324 324 324 325 324 324 324 321 323 335 336 335 340 332 336 339 336 335 334 334 334
312 313 313 313 312 313 315 317 319 317 318 318 323 326 326 325 323 320 320 320 321 322 322 323 323 323 323 321 319 322 319 321 336 336 336 337 339 332 330 329 335 336 334 334 335
312 313 313 313 312 313 317 320 321 322 323 318 322 325 324 327 323 322 320 321 322 322 322 323 323 319 318 319 321 323 323 323 338 336 336 339 340 333 333 332 334 334 334 334 334
312 313 313 313 312 313 318 319 319 325 319 325 324 321 325 325 323 322 321 322 323 323 321 323 320 319 320 322 324 325 325 333 337 340 340 338 336 339 337 338 338 334 334 334 334
312 313 313 313 312 315 319 317 317 317 320 319 321 323 323 324 323 323 323 323 323 322 322 322 321 322 325 327 326 325 326 336 336 338 339 333 340 335 337 336 334 333 334 334 334
311 312 313 313 314 313 319 317 316 319 321 322 322 320 323 324 325 323 322 323 322 322 322 323 325 326 327 326 327 326 329 335 334 336 336 338 338 338 333 333 336 339 335 335 335
311 312 313 313 315 312 320 318 315 320 322 325 323 321 322 324 325 324 324 322 323 323 325 325 326 328 327 327 328 327 329 329 327 326 327 334 339 334 334 333 335 339 337 336 336
311 312 313 313 314 315 316 315 316 322 336 324 322 322 322 324 324 324 325 323 323 325 326 326 326 327 327 329 327 328 329 328 330 326 329 340 347 344 338 336 333 336 334 337 334
310 311 313 313 313 317 316 316 321 326 328 325 322 323 323 324 324 325 324 324 325 324 325 326 328 327 329 328 327 327 327 327 329 327 333 340 343 346 339 338 335 332 338 333 328
310 311 312 313 314 314 315 321 326 328 329 323 323 324 323 324 324 325 325 324 323 327 327 327 327 328 328 327 328 327 328 327 329 333 335 341 340 339 340 338 339 335 332 328 326
310 311 312 313 319 318 320 325 326 329 330 326 325 323 324 324 325 325 324 324 325 325 324 329 328 326 327 326 329 329 328 329 331 326 341 339 344 346 340 338 336 333 328 327 326
310 311 312 314 320 320 321 328 326 328 329 329 324 324 323 324 325 325 324 324 324 324 329 336 332 327 327 328 327 328 330 332 333 332 338 340 339 338 339 336 332 328 327 324 322
310 312 313 317 320 317 323 324 326 327 326 327 327 323 324 324 324 324 325 325 327 330 330 334 335 330 329 328 327 328 330 328 329 331 343 344 340 340 335 332 328 326 324 321 322
311 319 320 321 321 321 324 322 323 324 323 326 328 330 324 325 325 326 327 332 330 329 330 329 334 332 329 330 329 327 328 332 329 332 333 342 340 333 330 327 324 323 321 322 322
318 321 322 322 321 321 322 324 323 324 323 325 329 329 330 326 326 329 332 332 328 332 334 331 333 333 332 329 328 327 330 329 329 330 329 335 338 330 327 325 323 321 322 321 321
320 320 320 322 323 321 321 325 325 324 324 326 330 328 330 328 330 332 331 328 330 331 331 334 335 329 333 332 331 328 327 329 328 329 336 340 337 328 326 323 322 321 320 320 320
317 321 319 323 323 323 322 326 328 323 323 323 330 330 330 330 331 331 330 329 326 326 330 335 331 333 333 337 333 330 328 329 329 329 337 335 330 327 325 321 322 321 321 320 319
316 321 321 323 324 323 322 325 327 327 325 327 329 331 330 332 333 331 329 327 326 327 333 333 331 330 328 330 328 327 328 328 328 329 334 330 328 325 321 320 322 321 320 318 318
317 319 320 321 324 326 321 325 328 327 327 329 329 330 332 332 333 331 329 329 329 332 331 331 332 330 327 327 327 327 328 328 326 329 328 327 325 321 322 322 321 319 318 317 317
314 317 321 321 323 325 324 327 327 326 328 329 331 333 334 334 333 333 331 330 330 332 332 331 332 330 328 327 328 331 329 328 326 325 325 324 321 321 321 320 319 317 317 317 317
Wind_Speed
14 17 19 21 22 23 24 24 25 24 21 20 18 16 16 10 9 7 7 7 6 4 5 6 8 6 7 18 20 24 3 6 6 9 5 22 10 16 24 17 1 10 18 20 13
14 16 18 20 21 23 24 24 25 23 20 20 18 14 13 11 9 11 5 5 6 7 8 7 2 7 11 15 12 7 1 6 5 7 7 20 24 17 12 23 25 19 36 40 35
12 15 18 21 23 24 24 24 25 21 20 20 16 12 11 9 9 9 11 9 6 8 10 9 17 18 18 23 26 16 7 2 10 13 16 23 25 30 18 10 22 20 31 29 29
13 15 18 21 23 25 24 24 23 20 21 16 13 9 8 6 2 4 6 9 9 12 8 8 12 17 7 7 27 5 9 5 8 19 28 27 26 27 31 29 36 35 34 32 33
15 17 19 22 24 26 25 25 22 20 18 12 10 7 5 4 10 8 6 11 16 12 8 10 19 15 8 10 22 5 5 3 6 33 37 43 32 22 32 26 27 28 29 29 30
16 19 20 22 25 26 25 23 21 20 13 10 7 5 3 4 2 4 9 16 17 13 9 10 11 17 13 13 9 11 7 4 9 27 21 21 4 9 14 24 19 23 26 25 27
16 18 20 22 24 26 25 21 21 17 8 7 5 5 6 11 4 4 13 16 10 4 11 15 16 7 18 10 20 13 2 6 5 23 9 44 5 7 7 13 20 16 20 22 23
16 18 21 23 25 26 23 21 18 11 6 5 4 4 7 6 9 5 13 13 8 11 15 14 13 14 12 18 20 6 2 5 6 11 9 6 4 8 6 6 18 7 16 22 20
16 18 21 23 26 26 21 20 15 9 5 5 1 4 8 5 11 8 11 16 11 9 12 11 11 11 15 6 8 6 7 8 6 11 7 10 7 3 10 12 22 13 13 14 14
16 18 20 22 25 21 18 16 9 7 5 4 4 5 9 9 12 13 15 16 15 10 15 15 8 3 5 1 8 8 8 12 11 10 21 19 16 13 4 11 27 12 11 9 8
15 17 19 20 23 18 18 11 13 2 18 12 20 15 11 13 12 16 17 16 16 9 7 17 3 8 13 13 18 11 7 6 18 18 14 16 13 21 19 37 27 17 14 11 7
15 18 19 19 18 12 10 8 9 15 16 19 21 18 17 12 6 14 17 14 9 8 9 5 12 18 16 17 4 10 10 7 22 19 19 7 20 9 15 21 25 17 20 16 11
15 17 19 19 11 13 7 8 9 13 6 16 18 20 14 7 13 16 18 20 9 9 11 10 17 18 11 5 3 9 6 3 5 14 15 18 5 5 4 11 15 9 16 13 8
15 16 18 21 5 15 3 11 15 5 3 6 9 9 15 11 9 22 22 19 8 16 11 10 25 7 2 6 4 4 7 10 6 5 4 6 3 2 6 9 10 5 16 11 7
15 16 16 18 19 16 10 17 16 1 3 9 11 6 14 16 6 15 23 26 16 15 4 13 5 2 5 0 4 2 7 7 5 6 3 4 7 1 2 5 8 4 7 10 7
15 15 17 15 18 11 16 20 8 2 3 4 9 8 7 15 21 13 20 22 18 9 15 13 10 4 2 5 4 5 5 7 4 2 3 4 6 2 4 5 2 3 7 9 16
16 15 17 18 16 13 13 10 4 4 1 9 9 10 8 8 12 7 9 8 6 3 7 7 5 2 5 3 3 4 4 4 6 2 3 6 11 3 2 7 14 15 18 18 10
17 17 16 15 11 6 14 2 2 8 13 5 10 12 9 8 8 12 8 7 10 7 6 5 3 9 4 5 3 4 4 4 2 1 4 6 5 6 12 24 30 23 21 10 11
16 17 20 11 5 2 3 1 5 5 10 10 7 10 8 9 6 7 9 10 10 10 5 4 4 6 7 4 4 6 4 2 1 3 6 4 7 3 6 13 21 18 16 20 31
15 17 15 3 14 6 2 5 5 6 13 14 2 5 6 12 6 8 9 13 9 3 8 4 2 6 6 3 6 2 2 5 4 3 5 5 8 5 6 9 8 14 20 27 31
11 8 5 14 12 5 3 5 11 22 14 9 11 7 6 3 4 5 5 5 4 5 3 4 3 1 5 3 5 6 6 4 3 3 2 4 3 6 8 8 8 21 30 33 28
5 4 15 13 3 5 4 5 5 7 18 10 5 7 7 7 3 2 3 3 7 11 4 2 3 2 3 6 7 8 7 5 5 5 2 5 1 7 8 16 24 25 27 28 25
4 10 7 10 3 4 9 14 22 5 11 7 9 7 6 4 3 4 4 2 12 6 2 3 4 3 4 7 7 7 6 6 3 3 3 4 3 9 17 20 25 24 26 24 20
5 3 10 16 16 9 6 10 7 11 16 16 9 9 7 4 1 4 6 6 15 7 3 1 4 3 4 4 5 6 9 9 6 4 3 10 9 8 8 9 20 24 25 25 22
5 6 9 4 11 10 8 7 11 6 10 5 5 7 7 3 3 7 11 7 6 5 5 4 1 2 6 7 10 9 9 9 8 4 8 8 11 7 7 11 20 23 19 19 18
5 4 14 17 18 7 9 7 10 12 5 6 6 10 10 6 7 7 12 6 4 3 4 4 1 3 3 7 10 10 7 13 10 12 15 14 10 11 21 25 24 20 17 16 14
8 18 11 12 9 5 6 6 8 10 13 11 4 4 8 9 11 20 17 16 10 6 2 2 2 3 2 9 9 6 5 10 11 9 9 7 5 17 14 18 18 16 15 13 12
Wind_Direction
330 332 335 335 335 334 333 335 333 332 330 326 321 324 317 312 299 276 215 248 280 293 230 205 204 265 284 263 254 259 285 283 312 44 359 52 93 84 111 125 325 36 103 108 122
327 329 331 333 336 333 333 334 332 330 328 323 316 322 312 308 297 251 236 244 261 279 200 178 216 290 251 257 249 186 121 262 36 39 45 59 51 128 78 88 106 147 118 108 102
320 325 331 337 336 336 335 333 330 327 327 321 313 320 307 317 317 271 238 227 256 192 198 240 268 292 251 264 262 255 210 343 51 44 33 68 52 59 71 66 145 137 95 108 90
322 331 335 336 337 335 333 331 328 325 326 320 313 317 299 311 319 269 199 219 181 174 226 262 276 268 236 259 278 283 297 63 41 63 75 51 57 57 50 57 86 89 89 91 90
326 334 336 335 337 337 333 330 326 322 323 319 314 304 305 301 261 269 195 169 164 168 211 252 295 268 255 282 279 275 292 112 97 85 90 74 19 57 31 42 63 80 80 83 86
326 332 334 335 334 334 331 327 323 321 320 319 311 298 313 263 238 281 170 163 171 185 216 261 270 307 273 273 311 234 266 190 86 105 122 111 107 28 9 7 46 68 81 85 86
322 327 330 333 333 333 330 327 326 322 313 320 315 320 277 249 240 216 164 171 179 215 274 308 323 309 327 320 326 286 18 310 175 107 110 126 43 43 44 43 19 63 79 80 79
317 324 329 334 334 336 333 326 322 315 304 322 318 308 260 297 219 211 168 188 228 257 271 296 325 315 301 301 301 268 265 244 205 119 133 151 40 310 103 12 331 353 80 79 78
314 323 329 336 336 339 338 327 317 307 292 306 60 334 277 237 211 218 192 220 239 251 264 284 301 282 294 304 321 290 234 236 83 82 102 58 121 256 155 196 261 280 97 85 72
314 324 329 336 337 344 347 331 319 309 302 280 217 305 247 233 220 205 212 229 242 237 250 251 258 232 296 200 245 252 248 247 135 85 94 81 91 117 294 278 266 201 109 90 85
315 323 329 335 339 352 357 22 11 13 328 266 294 246 299 338 191 204 212 232 260 233 232 251 203 234 242 242 251 262 304 57 99 130 84 121 135 123 170 196 235 159 136 147 138
315 323 328 333 339 359 14 31 10 324 300 285 257 251 267 279 251 218 215 221 236 255 260 289 232 242 242 250 311 321 304 68 146 133 111 135 107 131 161 150 163 172 157 161 142
313 321 328 332 333 354 347 332 334 359 266 288 234 227 242 239 257 213 209 213 217 237 251 220 248 243 245 326 258 273 313 162 102 101 88 114 66 77 37 131 185 4 146 143 182
308 317 329 334 329 335 317 310 333 347 287 243 191 223 221 226 255 233 209 201 223 233 229 243 253 241 244 263 296 3 352 15 33 29 227 174 93 214 161 243 282 7 77 138 190
301 311 320 332 327 331 326 341 334 290 333 161 162 189 194 199 246 216 205 216 257 278 272 273 122 210 275 76 53 218 26 332 324 321 359 94 92 166 129 218 244 260 129 235 107
293 305 310 319 323 335 340 320 336 304 246 166 160 160 174 217 251 187 190 225 257 292 281 271 177 187 52 70 58 317 319 316 299 213 24 12 100 229 204 224 208 245 194 160 113
286 291 299 305 309 304 333 352 354 257 331 153 166 162 191 210 249 205 192 224 218 224 258 277 176 253 82 346 238 251 39 336 3 27 95 93 64 232 280 76 105 127 144 127 109
285 286 288 284 324 356 333 358 248 296 313 198 165 164 200 214 233 170 186 237 250 249 280 265 269 182 132 224 244 346 128 124 338 341 166 32 70 8 87 125 140 139 116 103 95
291 290 289 271 289 283 326 3 234 296 313 341 153 158 205 218 218 187 181 221 241 224 197 326 350 111 135 34 66 324 26 234 82 305 71 85 121 61 146 127 114 113 99 76 96
305 304 287 199 195 224 221 235 272 306 347 340 298 174 208 201 210 177 188 225 242 96 82 309 330 156 108 51 280 193 274 31 358 18 96 95 66 104 70 118 107 92 80 74 83
306 308 293 168 204 183 221 240 306 308 336 344 331 318 235 203 235 233 231 93 62 13 114 2 18 3 111 9 66 36 31 28 111 60 107 124 75 127 109 81 81 69 71 81 79
311 265 169 200 195 224 205 243 242 348 308 301 293 284 248 174 269 217 38 90 78 43 25 27 117 20 113 76 46 86 85 91 105 326 269 95 150 99 100 79 76 81 82 80 74
265 266 227 204 251 240 276 291 274 305 281 306 297 308 333 250 197 147 117 62 76 67 47 324 354 21 16 9 29 71 55 81 101 85 342 97 159 88 85 77 81 76 79 77 70
285 272 233 213 239 275 322 291 261 251 256 269 300 315 316 316 185 105 111 68 71 96 48 75 44 114 185 181 119 85 72 68 77 57 62 113 111 81 70 79 86 78 77 67 58
235 265 320 222 229 217 222 290 314 286 223 285 297 254 283 321 257 140 109 105 57 44 54 80 47 2 300 90 78 78 79 68 60 45 107 110 96 101 90 82 79 75 65 53 48
278 293 339 302 296 229 192 245 270 288 286 253 239 288 325 280 266 148 131 124 135 101 71 20 304 322 74 82 92 87 79 85 61 53 98 104 95 114 89 82 73 71 66 63 61
269 296 294 284 308 301 201 216 251 272 283 265 354 324 291 272 80 111 141 123 137 122 110 87 103 46 189 114 107 66 66 99 86 64 103 94 121 88 80 80 80 78 78 81 75